Weather History for Amritsar, India

Change the Weather History Date:

Monday, March 4, 2013

  Actual Average Record
Temperature  
Mean Temperature 65 °F -  
Max Temperature 80 °F 78 °F 84 °F (2008)
Min Temperature 50 °F 56 °F 41 °F (1997)
Growing Degree Days 15 (Base 50)    
Moisture  
Dew Point 59 °F    
Average Humidity 84    
Maximum Humidity 100    
Minimum Humidity 48    
Precipitation  
Precipitation 0.00 in 0.06 in - ()
Sea Level Pressure  
Sea Level Pressure 30.00 in    
Wind  
Wind Speed 1 mph ()    
Max Wind Speed 7 mph    
Max Gust Speed -    
Visibility 1.8 miles    
Events      
Averages and records for this station are not official NWS values.
T = Trace of Precipitation, MM = Missing Value Source: Averaged Metar Reports

Daily Weather History Graph

Daily Weather History Graph

Search for Another Location

Airport:

Trip Planner

Search our weather history database for the weather conditions in past years. The results will help you decide how hot, cold, wet, or windy it might be!

Date:

Astronomy

Mar. 04, 2013 Rise Set
Actual Time 6:54 AM IST 6:30 PM IST
Civil Twilight 6:30 AM IST 6:55 PM IST
Nautical Twilight 6:01 AM IST 7:23 PM IST
Astronomical Twilight 5:33 AM IST 7:51 PM IST
Moon No Moon Rise 11:03 AM IST (3/4)
Length of Visible Light 12h 25m
Length of Day
11h 36m
Waning Gibbous, 57% of the Moon is Illuminated
Mar 4
Waning Gibbous
Mar 5
Last Quarter
Mar 12
New
Mar 19
First Quarter
Mar 27
Full

Hourly Weather History & Observations

Time (IST) Temp. Heat Index Dew Point Humidity Pressure Visibility Wind Dir Wind Speed Gust Speed Precip Events Conditions
12:00 AM 57.2 °F - 53.6 °F 88% 30.01 in 1.6 mi Calm Calm - N/A   Mist
12:30 AM 57.2 °F - 53.6 °F 88% 30.01 in 1.6 mi Calm Calm - N/A   Mist
1:00 AM 57.2 °F - 53.6 °F 88% 30.01 in 1.6 mi Calm Calm - N/A   Mist
1:30 AM 57.2 °F - 53.6 °F 88% 29.98 in 1.6 mi Calm Calm - N/A   Mist
2:00 AM 57.2 °F - 53.6 °F 88% 29.98 in 1.6 mi Calm Calm - N/A   Mist
2:30 AM 55.4 °F - 53.6 °F 94% 29.98 in 0.9 mi Calm Calm - N/A   Mist
3:00 AM 53.6 °F - 53.6 °F 100% 29.98 in 0.9 mi Calm Calm - N/A   Mist
3:30 AM 53.6 °F - 53.6 °F 100% 29.98 in 0.9 mi Calm Calm - N/A   Mist
4:00 AM 53.6 °F - 53.6 °F 100% 29.95 in 0.9 mi Calm Calm - N/A   Mist
4:30 AM 53.6 °F - 53.6 °F 100% 29.95 in 0.9 mi Calm Calm - N/A   Mist
5:00 AM 53.6 °F - 53.6 °F 100% 29.95 in 0.9 mi Calm Calm - N/A   Mist
5:30 AM 54 °F - 54 °F 100% 29.96 in 1 mi Calm Calm - -   Mist
5:30 AM 53.6 °F - 53.6 °F 100% 29.95 in 0.9 mi Calm Calm - N/A   Mist
6:00 AM 55.4 °F - 55.4 °F 100% 29.98 in 0.6 mi Calm Calm - N/A   Mist
6:30 AM 53.6 °F - 53.6 °F 100% 29.98 in 0.6 mi Calm Calm - N/A   Scattered Clouds
7:00 AM 53.6 °F - 53.6 °F 100% 29.98 in 0.6 mi Calm Calm - N/A   Scattered Clouds
7:30 AM 53.6 °F - 53.6 °F 100% 29.98 in 0.6 mi Calm Calm - N/A   Scattered Clouds
8:00 AM 55.4 °F - 55.4 °F 100% 30.01 in 0.6 mi Calm Calm - N/A   Scattered Clouds
8:30 AM 56 °F - 56 °F 100% 30.01 in 1 mi Calm Calm - -   Mist
8:30 AM 57.2 °F - 57.2 °F 100% 30.01 in 0.6 mi Calm Calm - N/A   Scattered Clouds
9:00 AM 59.0 °F - 59.0 °F 100% 30.01 in 0.6 mi Calm Calm - N/A   Scattered Clouds
9:30 AM 62.6 °F - 62.6 °F 100% 30.01 in 0.6 mi Calm Calm - N/A   Scattered Clouds
10:00 AM 68.0 °F - 68.0 °F 100% 30.01 in 0.9 mi Calm Calm - N/A   Scattered Clouds
10:30 AM 71.6 °F - 64.4 °F 78% 30.04 in 0.9 mi Calm Calm - N/A   Scattered Clouds
11:00 AM 73.4 °F - 64.4 °F 73% 30.04 in 1.1 mi Calm Calm - N/A   Partly Cloudy
12:00 PM 75.2 °F - 64.4 °F 69% 30.04 in 2.5 mi SW 6.9 mph - N/A   Haze
1:00 PM 77.0 °F - 62.6 °F 61% 30.01 in 3.1 mi SW 4.6 mph - N/A   Haze
1:30 PM 78.8 °F - 62.6 °F 57% 30.01 in 3.1 mi SW 3.5 mph - N/A   Haze
2:00 PM 78.8 °F - 62.6 °F 57% 30.01 in 3.7 mi West 5.8 mph - N/A   Unknown
2:30 PM 78.8 °F - 60.8 °F 54% 29.98 in 3.7 mi WSW 4.6 mph - N/A   Unknown
3:00 PM 80.6 °F 81.5 °F 60.8 °F 51% 29.98 in 3.7 mi Variable 3.5 mph - N/A   Unknown
3:30 PM 80.6 °F 81.1 °F 59.0 °F 48% 29.98 in 3.7 mi SW 3.5 mph - N/A   Unknown
4:00 PM 78.8 °F - 59.0 °F 51% 29.98 in 3.7 mi West 4.6 mph - N/A   Unknown
4:30 PM 78.8 °F - 62.6 °F 57% 29.98 in 3.7 mi Variable 2.3 mph - N/A   Unknown
5:00 PM 78.8 °F - 60.8 °F 54% 29.98 in 3.7 mi Calm Calm - N/A   Unknown
5:30 PM 77.0 °F - 60.8 °F 57% 29.98 in 3.7 mi Calm Calm - N/A   Unknown
6:30 PM 73.4 °F - 62.6 °F 69% 29.98 in 3.1 mi Calm Calm - N/A   Haze
7:00 PM 71.6 °F - 60.8 °F 69% 29.98 in 3.1 mi Calm Calm - N/A   Haze
7:30 PM 69.8 °F - 60.8 °F 73% 29.98 in 3.1 mi Calm Calm - N/A   Haze
8:00 PM 69.8 °F - 60.8 °F 73% 30.01 in 3.1 mi Calm Calm - N/A   Haze
8:30 PM 66.2 °F - 62.6 °F 88% 30.01 in 2.5 mi Calm Calm - N/A   Mist
9:30 PM 62.6 °F - 62.6 °F 100% 30.04 in 1.9 mi Calm Calm - N/A   Mist
10:00 PM 62.6 °F - 60.8 °F 94% 30.04 in 1.9 mi Calm Calm - N/A   Mist
10:30 PM 62.6 °F - 62.6 °F 100% 30.04 in 1.9 mi Calm Calm - N/A   Mist
11:00 PM 60.8 °F - 60.8 °F 100% 30.04 in 1.6 mi Calm Calm - N/A   Mist
11:30 PM 61 °F - 61 °F 100% 30.03 in 1 mi Calm Calm - -   Mist
11:30 PM 60.8 °F - 60.8 °F 100% 30.04 in 1.2 mi Calm Calm - N/A   Mist